Location: Dos Palmas
(32.4468°N, 116.8732°W)
Time: 03:23:48
(UTC+00:00)

Cosmos 1833 Rocket - Pass Details

Date: 20 June 2021
Orbit: 832 x 840 km, 71.0° (Epoch: 29 July)

Event Time Altitude Azimuth Distance (km) Brightness Sun altitude
Exits shadow 11:08:35 24° 204° (SSW) 1,676 3.7 -16.6°
Maximum altitude 11:12:07 83° 289° (WNW) 849 2.6 -16.1°
Drops below altitude 10° 11:17:47 10° 18° (NNE) 2,458 6.1 -15.2°
Sets 11:20:14 0° 20° (NNE) 3,396 7.0 -14.8°
